TimeEST,TemperatureF,Dew PointF,Humidity,Sea Level PressureIn,VisibilityMPH,Wind Direction,Wind SpeedMPH,Gust SpeedMPH,PrecipitationIn,Events,Conditions,WindDirDegrees,DateUTC
12:00 AM,35.6,33.8,93,30.07,7.0,West,4.6,-,N/A,,Overcast,260,2013-01-18 05:00:00
12:08 AM,35.6,33.8,93,30.05,8.0,Calm,Calm,-,N/A,,Overcast,0,2013-01-18 05:08:00
12:32 AM,35.6,33.8,93,30.09,6.0,SW,4.6,-,N/A,,Overcast,220,2013-01-18 05:32:00
12:52 AM,37.0,34.0,89,30.11,9.0,West,6.9,-,N/A,,Overcast,260,2013-01-18 05:52:00
1:52 AM,37.0,34.0,89,30.11,9.0,West,9.2,-,N/A,,Partly Cloudy,270,2013-01-18 06:52:00
2:52 AM,37.0,33.1,86,30.14,10.0,West,8.1,-,N/A,,Clear,280,2013-01-18 07:52:00
3:52 AM,36.0,30.0,79,30.15,10.0,West,6.9,-,N/A,,Clear,260,2013-01-18 08:52:00
4:52 AM,34.0,28.9,82,30.18,10.0,West,6.9,-,N/A,,Clear,260,2013-01-18 09:52:00
5:12 AM,35.6,28.4,75,30.18,10.0,West,10.4,-,N/A,,Partly Cloudy,270,2013-01-18 10:12:00
5:52 AM,36.0,26.1,67,30.20,10.0,WNW,16.1,24.2,N/A,,Partly Cloudy,290,2013-01-18 10:52:00
6:52 AM,37.0,24.1,59,30.26,10.0,WNW,17.3,23.0,0.01,,Partly Cloudy,290,2013-01-18 11:52:00
7:52 AM,37.9,21.9,53,30.32,10.0,WNW,15.0,-,N/A,,Scattered Clouds,300,2013-01-18 12:52:00
8:52 AM,37.9,23.0,55,30.38,10.0,NW,15.0,24.2,N/A,,Mostly Cloudy,320,2013-01-18 13:52:00
9:52 AM,37.9,19.9,48,30.43,10.0,NNW,20.7,-,N/A,,Scattered Clouds,330,2013-01-18 14:52:00
10:52 AM,39.0,19.0,45,30.46,10.0,NNW,13.8,24.2,N/A,,Scattered Clouds,330,2013-01-18 15:52:00
11:52 AM,37.9,19.0,47,30.46,10.0,NNW,11.5,-,N/A,,Scattered Clouds,340,2013-01-18 16:52:00
12:52 PM,37.9,19.0,47,30.45,10.0,NNE,13.8,-,N/A,,Scattered Clouds,20,2013-01-18 17:52:00
1:52 PM,39.0,18.0,43,30.46,10.0,North,11.5,20.7,N/A,,Partly Cloudy,360,2013-01-18 18:52:00
2:52 PM,37.9,19.0,47,30.48,10.0,NNE,9.2,-,N/A,,Partly Cloudy,20,2013-01-18 19:52:00
3:52 PM,37.0,18.0,46,30.49,10.0,NNE,8.1,-,N/A,,Partly Cloudy,20,2013-01-18 20:52:00
4:52 PM,36.0,19.0,50,30.51,10.0,NNW,5.8,-,N/A,,Partly Cloudy,330,2013-01-18 21:52:00
5:52 PM,35.1,18.0,50,30.52,10.0,Calm,Calm,-,N/A,,Clear,0,2013-01-18 22:52:00
6:52 PM,28.9,21.9,75,30.53,10.0,SSE,4.6,-,N/A,,Clear,150,2013-01-18 23:52:00
7:52 PM,28.9,21.0,72,30.51,10.0,Calm,Calm,-,N/A,,Clear,0,2013-01-19 00:52:00
8:52 PM,30.9,19.0,61,30.51,10.0,SSE,4.6,-,N/A,,Clear,160,2013-01-19 01:52:00
9:52 PM,32.0,18.0,56,30.52,10.0,South,3.5,-,N/A,,Clear,170,2013-01-19 02:52:00
10:52 PM,32.0,19.0,59,30.51,10.0,Calm,Calm,-,N/A,,Clear,0,2013-01-19 03:52:00
11:52 PM,32.0,19.0,59,30.47,10.0,SE,4.6,-,N/A,,Clear,140,2013-01-19 04:52:00